7 * 24
多渠道服务支持
KAIYUN-1(OBJECT-B,开运一号 / 嘉州号)是中国商业航天首颗天基太空态势感知卫星。2025 年 9 月 5 日,由谷神星一号火箭在酒泉发射,进入 535 公里太阳同步轨道。作为广视星座首发星,它可覆盖低中高轨,监测太空目标与碎片,构建自主轨道数据集,为在轨安全、碰撞预警提供数据支撑。
中国
(CN)
| 数据来源 | 国际轨道数据 |
| 星历时间: | 2026-05-25T10:12:25+0800 17小时前 查看轨道信息 |
| 半长轴: | 6884.987km |
| 偏心率: | 0.001507 |
| 轨道倾角: | 97.417° |
| 近地点辐角 | 88.788° |
| 升交点赤经 | 331.809° |
| 平近点角 | 271.508° |
| 近地点: | 496.474km |
| 远地点: | 517.226km |
| 周期: | 94.758分钟 |
| 每日圈数: | 15.196658 |